Location: Julian California
(33.0790°N, 116.6010°W)
Time: 14:38:15
(UTC-08:00)

Cosmos 1500 Rocket - Pass Details

Date: 12 July 2018
Orbit: 604 x 631 km, 82.5° (Epoch: 18 November)

Event Time Altitude Azimuth Distance (km) Brightness Sun altitude
Exits shadow 21:10:30 19° 155° (SSE) 1,455 4.9 -13.8°
Maximum altitude 21:13:13 42° 92° (E) 864 3.9 -14.2°
Drops below altitude 10° 21:17:17 10° 22° (NNE) 1,954 6.3 -14.9°
Sets 21:19:36 0° 15° (NNE) 2,864 7.3 -15.3°
